Year,Month,Day,Hour,Minute,Value (Times are PST for temperature in C)
2017,01,18,00,00,10.40
2017,01,18,00,01,10.40
2017,01,18,00,02,10.40
2017,01,18,00,03,10.40
2017,01,18,00,04,10.40
2017,01,18,00,05,10.40
2017,01,18,00,06,10.40
2017,01,18,00,07,10.40
2017,01,18,00,08,10.40
2017,01,18,00,09,10.40
2017,01,18,00,10,10.40
2017,01,18,00,11,10.40
2017,01,18,00,12,10.40
2017,01,18,00,13,10.40
2017,01,18,00,14,10.30
2017,01,18,00,15,10.30
2017,01,18,00,16,10.30
2017,01,18,00,17,10.30
2017,01,18,00,18,10.30
2017,01,18,00,19,10.30
2017,01,18,00,20,10.30
2017,01,18,00,21,10.30
2017,01,18,00,22,10.30
2017,01,18,00,23,10.30
2017,01,18,00,24,10.40
2017,01,18,00,25,10.40
2017,01,18,00,26,10.40
2017,01,18,00,27,10.40
2017,01,18,00,28,10.40
2017,01,18,00,29,10.40
2017,01,18,00,30,10.40
2017,01,18,00,31,10.40
2017,01,18,00,32,10.40
2017,01,18,00,33,10.40
2017,01,18,00,34,10.40
2017,01,18,00,35,10.40
2017,01,18,00,36,10.40
2017,01,18,00,37,10.40
2017,01,18,00,38,10.40
2017,01,18,00,39,10.40
2017,01,18,00,40,10.40
2017,01,18,00,41,10.40
2017,01,18,00,42,10.40
2017,01,18,00,43,10.40
2017,01,18,00,44,10.40
2017,01,18,00,45,10.40
2017,01,18,00,46,10.40
2017,01,18,00,47,10.40
2017,01,18,00,48,10.40
2017,01,18,00,49,10.40
2017,01,18,00,50,10.40
2017,01,18,00,51,10.40
2017,01,18,00,52,10.40
2017,01,18,00,53,10.40
2017,01,18,00,54,10.40
2017,01,18,00,55,10.40
2017,01,18,00,56,10.40
2017,01,18,00,57,10.40
2017,01,18,00,58,10.40
2017,01,18,00,59,10.40
2017,01,18,01,00,10.40
2017,01,18,01,01,10.30
2017,01,18,01,02,10.30
2017,01,18,01,03,10.30
2017,01,18,01,04,10.30
2017,01,18,01,05,10.30
2017,01,18,01,06,10.30
2017,01,18,01,07,10.30
2017,01,18,01,08,10.30
2017,01,18,01,09,10.30
2017,01,18,01,10,10.30
2017,01,18,01,11,10.30
2017,01,18,01,12,10.30
2017,01,18,01,13,10.30
2017,01,18,01,14,10.30
2017,01,18,01,15,10.30
2017,01,18,01,16,10.30
2017,01,18,01,17,10.30
2017,01,18,01,18,10.30
2017,01,18,01,19,10.30
2017,01,18,01,20,10.30
2017,01,18,01,21,10.30
2017,01,18,01,22,10.30
2017,01,18,01,23,10.30
2017,01,18,01,24,10.30
2017,01,18,01,25,10.30
2017,01,18,01,26,10.30
2017,01,18,01,27,10.30
2017,01,18,01,28,10.30
2017,01,18,01,29,10.30
2017,01,18,01,30,10.30
2017,01,18,01,31,10.30
2017,01,18,01,32,10.30
2017,01,18,01,33,10.30
2017,01,18,01,34,10.30
2017,01,18,01,35,10.30
2017,01,18,01,36,10.30
2017,01,18,01,37,10.30
2017,01,18,01,38,10.30
2017,01,18,01,39,10.30
2017,01,18,01,40,10.20
2017,01,18,01,41,10.20
2017,01,18,01,42,10.20
2017,01,18,01,43,10.20
2017,01,18,01,44,10.20
2017,01,18,01,45,10.20
2017,01,18,01,46,10.20
2017,01,18,01,47,10.20
2017,01,18,01,48,10.20
2017,01,18,01,49,10.20
2017,01,18,01,50,10.30
2017,01,18,01,51,10.20
2017,01,18,01,52,10.30
2017,01,18,01,53,10.30
2017,01,18,01,54,10.30
2017,01,18,01,55,10.30
2017,01,18,01,56,10.30
2017,01,18,01,57,10.30
2017,01,18,01,58,10.30
2017,01,18,01,59,10.30
2017,01,18,02,00,10.30
2017,01,18,02,01,10.30
2017,01,18,02,02,10.30
2017,01,18,02,03,10.30
2017,01,18,02,04,10.30
2017,01,18,02,05,10.30
2017,01,18,02,06,10.30
2017,01,18,02,07,10.30
2017,01,18,02,08,10.30
2017,01,18,02,09,10.30
2017,01,18,02,10,10.30
2017,01,18,02,11,10.30
2017,01,18,02,12,10.30
2017,01,18,02,13,10.30
2017,01,18,02,14,10.30
2017,01,18,02,15,10.30
2017,01,18,02,16,10.30
2017,01,18,02,17,10.30
2017,01,18,02,18,10.30
2017,01,18,02,19,10.30
2017,01,18,02,20,10.30
2017,01,18,02,21,10.30
2017,01,18,02,22,10.30
2017,01,18,02,23,10.30
2017,01,18,02,24,10.30
2017,01,18,02,25,10.30
2017,01,18,02,26,10.30
2017,01,18,02,27,10.30
2017,01,18,02,28,10.30
2017,01,18,02,29,10.30
2017,01,18,02,30,10.30
2017,01,18,02,31,10.30
2017,01,18,02,32,10.30
2017,01,18,02,33,10.20
2017,01,18,02,34,10.20
2017,01,18,02,35,10.20
2017,01,18,02,36,10.20
2017,01,18,02,37,10.20
2017,01,18,02,38,10.20
2017,01,18,02,39,10.20
2017,01,18,02,40,10.20
2017,01,18,02,41,10.20
2017,01,18,02,42,10.20
2017,01,18,02,43,10.20
2017,01,18,02,44,10.20
2017,01,18,02,45,10.20
2017,01,18,02,46,10.20
2017,01,18,02,47,10.20
2017,01,18,02,48,10.20
2017,01,18,02,49,10.20
2017,01,18,02,50,10.20
2017,01,18,02,51,10.10
2017,01,18,02,52,10.10
2017,01,18,02,53,10.20
2017,01,18,02,54,10.10
2017,01,18,02,55,10.10
2017,01,18,02,56,10.10
2017,01,18,02,57,10.20
2017,01,18,02,58,10.20
2017,01,18,02,59,10.10
2017,01,18,03,00,10.20
2017,01,18,03,01,10.10
2017,01,18,03,02,10.10
2017,01,18,03,03,10.10
2017,01,18,03,04,10.10
2017,01,18,03,05,10.10
2017,01,18,03,06,10.10
2017,01,18,03,07,10.10
2017,01,18,03,08,10.10
2017,01,18,03,09,10.10
2017,01,18,03,10,10.10
2017,01,18,03,11,10.10
2017,01,18,03,12,10.10
2017,01,18,03,13,10.10
2017,01,18,03,14,10.10
2017,01,18,03,15,10.10
2017,01,18,03,16,10.10
2017,01,18,03,17,10.10
2017,01,18,03,18,10.10
2017,01,18,03,19,10.10
2017,01,18,03,20,10.10
2017,01,18,03,21,10.10
2017,01,18,03,22,10.10
2017,01,18,03,23,10.00
2017,01,18,03,24,10.00
2017,01,18,03,25,10.00
2017,01,18,03,26,10.00
2017,01,18,03,27,10.00
2017,01,18,03,28,10.00
2017,01,18,03,29,10.00
2017,01,18,03,30,10.00
2017,01,18,03,31,10.00
2017,01,18,03,32,10.00
2017,01,18,03,33,10.00
2017,01,18,03,34,10.00
2017,01,18,03,35,10.00
2017,01,18,03,36,10.00
2017,01,18,03,37,10.00
2017,01,18,03,38,10.00
2017,01,18,03,39,10.00
2017,01,18,03,40,10.00
2017,01,18,03,41,10.00
2017,01,18,03,42,9.90
2017,01,18,03,43,9.90
2017,01,18,03,44,9.90
2017,01,18,03,45,9.90
2017,01,18,03,46,9.90
2017,01,18,03,47,9.90
2017,01,18,03,48,9.90
2017,01,18,03,49,9.90
2017,01,18,03,50,9.90
2017,01,18,03,51,9.90
2017,01,18,03,52,9.90
2017,01,18,03,53,9.80
2017,01,18,03,54,9.80
2017,01,18,03,55,9.80
2017,01,18,03,56,9.80
2017,01,18,03,57,9.80
2017,01,18,03,58,9.80
2017,01,18,03,59,9.80
2017,01,18,04,00,9.80
2017,01,18,04,01,9.80
2017,01,18,04,02,9.80
2017,01,18,04,03,9.80
2017,01,18,04,04,9.80
2017,01,18,04,05,9.70
2017,01,18,04,06,9.70
2017,01,18,04,07,9.70
2017,01,18,04,08,9.70
2017,01,18,04,09,9.70
2017,01,18,04,10,9.70
2017,01,18,04,11,9.70
2017,01,18,04,12,9.70
2017,01,18,04,13,9.70
2017,01,18,04,14,9.70
2017,01,18,04,15,9.70
2017,01,18,04,16,9.70
2017,01,18,04,17,9.70
2017,01,18,04,18,9.70
2017,01,18,04,19,9.70
2017,01,18,04,20,9.70
2017,01,18,04,21,9.70
2017,01,18,04,22,9.70
2017,01,18,04,23,9.70
2017,01,18,04,24,9.70
2017,01,18,04,25,9.70
2017,01,18,04,26,9.70
2017,01,18,04,27,9.70
2017,01,18,04,28,9.70
2017,01,18,04,29,9.70
2017,01,18,04,30,9.70
2017,01,18,04,31,9.70
2017,01,18,04,32,9.70
2017,01,18,04,33,9.70
2017,01,18,04,34,9.70
2017,01,18,04,35,9.70
2017,01,18,04,36,9.70
2017,01,18,04,37,9.70
2017,01,18,04,38,9.70
2017,01,18,04,39,9.70
2017,01,18,04,40,9.70
2017,01,18,04,41,9.70
2017,01,18,04,42,9.70
2017,01,18,04,43,9.70
2017,01,18,04,44,9.70
2017,01,18,04,45,9.70
2017,01,18,04,46,9.70
2017,01,18,04,47,9.70
2017,01,18,04,48,9.70
2017,01,18,04,49,9.70
2017,01,18,04,50,9.70
2017,01,18,04,51,9.70
2017,01,18,04,52,9.70
2017,01,18,04,53,9.70
2017,01,18,04,54,9.70
2017,01,18,04,55,9.70
2017,01,18,04,56,9.70
2017,01,18,04,57,9.70
2017,01,18,04,58,9.70
2017,01,18,04,59,9.70
2017,01,18,05,00,9.70
2017,01,18,05,01,9.70
2017,01,18,05,02,9.60
2017,01,18,05,03,9.60
2017,01,18,05,04,9.60
2017,01,18,05,05,9.60
2017,01,18,05,06,9.60
2017,01,18,05,07,9.60
2017,01,18,05,08,9.60
2017,01,18,05,09,9.60
2017,01,18,05,10,9.60
2017,01,18,05,11,9.60
2017,01,18,05,12,9.60
2017,01,18,05,13,9.60
2017,01,18,05,14,9.60
2017,01,18,05,15,9.60
2017,01,18,05,16,9.60
2017,01,18,05,17,9.60
2017,01,18,05,18,9.60
2017,01,18,05,19,9.60
2017,01,18,05,20,9.60
2017,01,18,05,21,9.60
2017,01,18,05,22,9.60
2017,01,18,05,23,9.60
2017,01,18,05,24,9.60
2017,01,18,05,25,9.60
2017,01,18,05,26,9.60
2017,01,18,05,27,9.60
2017,01,18,05,28,9.60
2017,01,18,05,29,9.60
2017,01,18,05,30,9.60
2017,01,18,05,31,9.60
2017,01,18,05,32,9.60
2017,01,18,05,33,9.60
2017,01,18,05,34,9.70
2017,01,18,05,35,9.70
2017,01,18,05,36,9.70
2017,01,18,05,37,9.70
2017,01,18,05,38,9.70
2017,01,18,05,39,9.70
2017,01,18,05,40,9.70
2017,01,18,05,41,9.70
2017,01,18,05,42,9.70
2017,01,18,05,43,9.70
2017,01,18,05,44,9.70
2017,01,18,05,45,9.70
2017,01,18,05,46,9.70
2017,01,18,05,47,9.70
2017,01,18,05,48,9.70
2017,01,18,05,49,9.70
2017,01,18,05,50,9.70
2017,01,18,05,51,9.70
2017,01,18,05,52,9.70
2017,01,18,05,53,9.70
2017,01,18,05,54,9.70
2017,01,18,05,55,9.70
2017,01,18,05,56,9.70
2017,01,18,05,57,9.70
2017,01,18,05,58,9.70
2017,01,18,05,59,9.70
2017,01,18,06,00,9.70
2017,01,18,06,01,9.70
2017,01,18,06,02,9.70
2017,01,18,06,03,9.70
2017,01,18,06,04,9.70
2017,01,18,06,05,9.70
2017,01,18,06,06,9.70
2017,01,18,06,07,9.70
2017,01,18,06,08,9.70
2017,01,18,06,09,9.70
2017,01,18,06,10,9.70
2017,01,18,06,11,9.70
2017,01,18,06,12,9.70
2017,01,18,06,13,9.70
2017,01,18,06,14,9.70
2017,01,18,06,15,9.70
2017,01,18,06,16,9.70
2017,01,18,06,17,9.70
2017,01,18,06,18,9.70
2017,01,18,06,19,9.70
2017,01,18,06,20,9.70
2017,01,18,06,21,9.70
2017,01,18,06,22,9.70
2017,01,18,06,23,9.70
2017,01,18,06,24,9.70
2017,01,18,06,25,9.70
2017,01,18,06,26,9.70
2017,01,18,06,27,9.70
2017,01,18,06,28,9.70
2017,01,18,06,29,9.70
2017,01,18,06,30,9.70
2017,01,18,06,31,9.70
2017,01,18,06,32,9.70
2017,01,18,06,33,9.70
2017,01,18,06,34,9.70
2017,01,18,06,35,9.70
2017,01,18,06,36,9.70
2017,01,18,06,37,9.70
2017,01,18,06,38,9.70
2017,01,18,06,39,9.70
2017,01,18,06,40,9.70
2017,01,18,06,41,9.70
2017,01,18,06,42,9.70
2017,01,18,06,43,9.70
2017,01,18,06,44,9.70
2017,01,18,06,45,9.70
2017,01,18,06,46,9.70
2017,01,18,06,47,9.70
2017,01,18,06,48,9.70
2017,01,18,06,49,9.70
2017,01,18,06,50,9.70
2017,01,18,06,51,9.70
2017,01,18,06,52,9.70
2017,01,18,06,53,9.70
2017,01,18,06,54,9.70
2017,01,18,06,55,9.60
2017,01,18,06,56,9.60
2017,01,18,06,57,9.60
2017,01,18,06,58,9.60
2017,01,18,06,59,9.60
2017,01,18,07,00,9.60
2017,01,18,07,01,9.60
2017,01,18,07,02,9.60
2017,01,18,07,03,9.60
2017,01,18,07,04,9.60
2017,01,18,07,05,9.60
2017,01,18,07,06,9.60
2017,01,18,07,07,9.60
2017,01,18,07,08,9.60
2017,01,18,07,09,9.60
2017,01,18,07,10,9.60
2017,01,18,07,11,9.60
2017,01,18,07,12,9.60
2017,01,18,07,13,9.60
2017,01,18,07,14,9.60
2017,01,18,07,15,9.60
2017,01,18,07,16,9.60
2017,01,18,07,17,9.60
2017,01,18,07,18,9.60
2017,01,18,07,19,9.60
2017,01,18,07,20,9.60
2017,01,18,07,21,9.60
2017,01,18,07,22,9.60
2017,01,18,07,23,9.60
2017,01,18,07,24,9.60
2017,01,18,07,25,9.60
2017,01,18,07,26,9.60
2017,01,18,07,27,9.60
2017,01,18,07,28,9.60
2017,01,18,07,29,9.60
2017,01,18,07,30,9.60
2017,01,18,07,31,9.60
2017,01,18,07,32,9.60
2017,01,18,07,33,9.60
2017,01,18,07,34,9.60
2017,01,18,07,35,9.60
2017,01,18,07,36,9.60
2017,01,18,07,37,9.70
2017,01,18,07,38,9.70
2017,01,18,07,39,9.70
2017,01,18,07,40,9.70
2017,01,18,07,41,9.70
2017,01,18,07,42,9.70
2017,01,18,07,43,9.70
2017,01,18,07,44,9.70
2017,01,18,07,45,9.70
2017,01,18,07,46,9.80
2017,01,18,07,47,9.80
2017,01,18,07,48,9.80
2017,01,18,07,49,9.80
2017,01,18,07,50,9.80
2017,01,18,07,51,9.80
2017,01,18,07,52,9.80
2017,01,18,07,53,9.80
2017,01,18,07,54,9.90
2017,01,18,07,55,9.90
2017,01,18,07,56,9.90
2017,01,18,07,57,9.90
2017,01,18,07,58,9.90
2017,01,18,07,59,9.90
2017,01,18,08,00,9.90
2017,01,18,08,01,9.90
2017,01,18,08,02,9.90
2017,01,18,08,03,9.90
2017,01,18,08,04,9.90
2017,01,18,08,05,9.90
2017,01,18,08,06,9.90
2017,01,18,08,07,9.90
2017,01,18,08,08,9.90
2017,01,18,08,09,9.90
2017,01,18,08,10,9.90
2017,01,18,08,11,9.90
2017,01,18,08,12,9.90
2017,01,18,08,13,9.90
2017,01,18,08,14,10.00
2017,01,18,08,15,10.00
2017,01,18,08,16,10.00
2017,01,18,08,17,10.00
2017,01,18,08,18,10.00
2017,01,18,08,19,10.00
2017,01,18,08,20,10.00
2017,01,18,08,21,10.00
2017,01,18,08,22,10.00
2017,01,18,08,23,10.00
2017,01,18,08,24,10.00
2017,01,18,08,25,10.10
2017,01,18,08,26,10.10
2017,01,18,08,27,10.10
2017,01,18,08,28,10.10
2017,01,18,08,29,10.10
2017,01,18,08,30,10.10
2017,01,18,08,31,10.10
2017,01,18,08,32,10.10
2017,01,18,08,33,10.10
2017,01,18,08,34,10.10
2017,01,18,08,35,10.10
2017,01,18,08,36,10.10
2017,01,18,08,37,10.20
2017,01,18,08,38,10.20
2017,01,18,08,39,10.20
2017,01,18,08,40,10.20
2017,01,18,08,41,10.20
2017,01,18,08,42,10.10
2017,01,18,08,43,10.10
2017,01,18,08,44,10.10
2017,01,18,08,45,10.10
2017,01,18,08,46,10.10
2017,01,18,08,47,10.10
2017,01,18,08,48,10.10
2017,01,18,08,49,10.10
2017,01,18,08,50,10.10
2017,01,18,08,51,10.10
2017,01,18,08,52,10.10
2017,01,18,08,53,10.10
2017,01,18,08,54,10.10
2017,01,18,08,55,10.10
2017,01,18,08,56,10.10
2017,01,18,08,57,10.10
2017,01,18,08,58,10.10
2017,01,18,08,59,10.10
2017,01,18,09,00,10.10
2017,01,18,09,01,10.10
2017,01,18,09,02,10.10
2017,01,18,09,03,10.20
2017,01,18,09,04,10.20
2017,01,18,09,05,10.20
2017,01,18,09,06,10.20
2017,01,18,09,07,10.20
2017,01,18,09,08,10.20
2017,01,18,09,09,10.20
2017,01,18,09,10,10.20
2017,01,18,09,11,10.30
2017,01,18,09,12,10.30
2017,01,18,09,13,10.30
2017,01,18,09,14,10.30
2017,01,18,09,15,10.30
2017,01,18,09,16,10.30
2017,01,18,09,17,10.30
2017,01,18,09,18,10.30
2017,01,18,09,19,10.30
2017,01,18,09,20,10.30
2017,01,18,09,21,10.30
2017,01,18,09,22,10.30
2017,01,18,09,23,10.30
2017,01,18,09,24,10.30
2017,01,18,09,25,10.30
2017,01,18,09,26,10.30
2017,01,18,09,27,10.30
2017,01,18,09,28,10.30
2017,01,18,09,29,10.30
2017,01,18,09,30,10.30
2017,01,18,09,31,10.30
2017,01,18,09,32,10.30
2017,01,18,09,33,10.30
2017,01,18,09,34,10.30
2017,01,18,09,35,10.30
2017,01,18,09,36,10.20
2017,01,18,09,37,10.20
2017,01,18,09,38,10.20
2017,01,18,09,39,10.30
2017,01,18,09,40,10.20
2017,01,18,09,41,10.30
2017,01,18,09,42,10.30
2017,01,18,09,43,10.30
2017,01,18,09,44,10.20
2017,01,18,09,45,10.20
2017,01,18,09,46,10.20
2017,01,18,09,47,10.20
2017,01,18,09,48,10.20
2017,01,18,09,49,10.20
2017,01,18,09,50,10.20
2017,01,18,09,51,10.20
2017,01,18,09,52,10.20
2017,01,18,09,53,10.20
2017,01,18,09,54,10.20
2017,01,18,09,55,10.20
2017,01,18,09,56,10.20
2017,01,18,09,57,10.20
2017,01,18,09,58,10.20
2017,01,18,09,59,10.20
2017,01,18,10,00,10.20
2017,01,18,10,01,10.20
2017,01,18,10,02,10.20
2017,01,18,10,03,10.20
2017,01,18,10,04,10.20
2017,01,18,10,05,10.20
2017,01,18,10,06,10.20
2017,01,18,10,07,10.20
2017,01,18,10,08,10.20
2017,01,18,10,09,10.20
2017,01,18,10,10,10.20
2017,01,18,10,11,10.20
2017,01,18,10,12,10.20
2017,01,18,10,13,10.20
2017,01,18,10,14,10.20
2017,01,18,10,15,10.20
2017,01,18,10,16,10.20
2017,01,18,10,17,10.20
2017,01,18,10,18,10.20
2017,01,18,10,19,10.20
2017,01,18,10,20,10.20
2017,01,18,10,21,10.20
2017,01,18,10,22,10.20
2017,01,18,10,23,10.20
2017,01,18,10,24,10.30
2017,01,18,10,25,10.30
2017,01,18,10,26,10.30
2017,01,18,10,27,10.30
2017,01,18,10,28,10.30
2017,01,18,10,29,10.30
2017,01,18,10,30,10.30
2017,01,18,10,31,10.30
2017,01,18,10,32,10.30
2017,01,18,10,33,10.30
2017,01,18,10,34,10.30
2017,01,18,10,35,10.30
2017,01,18,10,36,10.30
2017,01,18,10,37,10.30
2017,01,18,10,38,10.30
2017,01,18,10,39,10.20
2017,01,18,10,40,10.20
2017,01,18,10,41,10.20
2017,01,18,10,42,10.20
2017,01,18,10,43,10.20
2017,01,18,10,44,10.20
2017,01,18,10,45,10.20
2017,01,18,10,46,10.20
2017,01,18,10,47,10.20
2017,01,18,10,48,10.20
2017,01,18,10,49,10.20
2017,01,18,10,50,10.20
2017,01,18,10,51,10.20
2017,01,18,10,52,10.20
2017,01,18,10,53,10.20
2017,01,18,10,54,10.20
2017,01,18,10,55,10.20
2017,01,18,10,56,10.20
2017,01,18,10,57,10.20
2017,01,18,10,58,10.20
2017,01,18,10,59,10.20
2017,01,18,11,00,10.20
2017,01,18,11,01,10.20
2017,01,18,11,02,10.20
2017,01,18,11,03,10.20
2017,01,18,11,04,10.20
2017,01,18,11,05,10.20
2017,01,18,11,06,10.20
2017,01,18,11,07,10.20
2017,01,18,11,08,10.20
2017,01,18,11,09,10.20
2017,01,18,11,10,10.20
2017,01,18,11,11,10.10
2017,01,18,11,12,10.20
2017,01,18,11,13,10.20
2017,01,18,11,14,10.10
2017,01,18,11,15,10.20
2017,01,18,11,16,10.10
2017,01,18,11,17,10.10
2017,01,18,11,18,10.10
2017,01,18,11,19,10.10
2017,01,18,11,20,10.10
2017,01,18,11,21,10.10
2017,01,18,11,22,10.10
2017,01,18,11,23,10.10
2017,01,18,11,24,10.10
2017,01,18,11,25,10.10
2017,01,18,11,26,10.00
2017,01,18,11,27,10.00
2017,01,18,11,28,10.00
2017,01,18,11,29,10.00
2017,01,18,11,30,10.00
2017,01,18,11,31,9.90
2017,01,18,11,32,9.90
2017,01,18,11,35,9.90
2017,01,18,11,36,9.90
2017,01,18,11,37,9.90
2017,01,18,11,38,9.90
2017,01,18,11,39,9.90
2017,01,18,11,40,9.90
2017,01,18,11,41,9.80
2017,01,18,11,42,9.80
2017,01,18,11,43,9.80
2017,01,18,11,44,9.80
2017,01,18,11,45,9.80
2017,01,18,11,46,9.80
2017,01,18,11,47,9.80
2017,01,18,17,50,9.70
2017,01,18,17,51,9.70
2017,01,18,17,52,9.70
2017,01,18,17,53,9.70
2017,01,18,17,54,9.70
2017,01,18,17,55,9.70
2017,01,18,17,56,9.70
2017,01,18,17,57,9.70
2017,01,18,17,58,9.70
2017,01,18,17,59,9.70
2017,01,18,18,00,9.70
2017,01,18,18,01,9.70
2017,01,18,18,02,9.70
2017,01,18,18,03,9.70
2017,01,18,18,04,9.70
2017,01,18,18,05,9.70
2017,01,18,18,06,9.70
2017,01,18,18,07,9.80
2017,01,18,18,08,9.80
2017,01,18,18,09,9.80
2017,01,18,18,10,9.80
2017,01,18,18,11,9.80
2017,01,18,18,12,9.80
2017,01,18,18,13,9.80
2017,01,18,18,14,9.80
2017,01,18,18,15,9.80
2017,01,18,18,16,9.80
2017,01,18,18,17,9.80
2017,01,18,18,18,9.80
2017,01,18,18,19,9.80
2017,01,18,18,20,9.80
2017,01,18,18,21,9.80
2017,01,18,18,22,9.80
2017,01,18,18,23,9.80
2017,01,18,18,24,9.80
2017,01,18,18,25,9.80
2017,01,18,18,26,9.80
2017,01,18,18,27,9.80
2017,01,18,18,28,9.80
2017,01,18,18,29,9.80
2017,01,18,18,30,9.80
2017,01,18,18,31,9.80
2017,01,18,18,32,9.80
2017,01,18,18,33,9.80
2017,01,18,18,34,9.70
2017,01,18,18,35,9.70
2017,01,18,18,36,9.70
2017,01,18,18,37,9.70
2017,01,18,18,38,9.70
2017,01,18,18,39,9.70
2017,01,18,18,40,9.70
2017,01,18,18,41,9.70
2017,01,18,18,42,9.70
2017,01,18,18,43,9.70
2017,01,18,18,44,9.70
2017,01,18,18,45,9.70
2017,01,18,18,46,9.70
2017,01,18,18,47,9.70
2017,01,18,18,48,9.70
2017,01,18,18,49,9.70
2017,01,18,18,50,9.80
2017,01,18,18,51,9.70
2017,01,18,18,52,9.70
2017,01,18,18,53,9.80
2017,01,18,18,54,9.70
2017,01,18,18,55,9.70
2017,01,18,18,56,9.70
2017,01,18,18,57,9.70
2017,01,18,18,58,9.70
2017,01,18,18,59,9.70
2017,01,18,19,00,9.70
2017,01,18,19,01,9.70
2017,01,18,19,02,9.70
2017,01,18,19,03,9.70
2017,01,18,19,04,9.70
2017,01,18,19,05,9.70
2017,01,18,19,06,9.70
2017,01,18,19,07,9.70
2017,01,18,19,08,9.70
2017,01,18,19,09,9.70
2017,01,18,19,10,9.70
2017,01,18,19,11,9.70
2017,01,18,19,12,9.70
2017,01,18,19,13,9.70
2017,01,18,19,14,9.70
2017,01,18,19,15,9.70
2017,01,18,19,16,9.70
2017,01,18,19,17,9.70
2017,01,18,19,18,9.70
2017,01,18,19,19,9.70
2017,01,18,19,20,9.70
2017,01,18,19,21,9.70
2017,01,18,19,22,9.70
2017,01,18,19,23,9.70
2017,01,18,19,24,9.70
2017,01,18,19,25,9.70
2017,01,18,19,26,9.70
2017,01,18,19,27,9.70
2017,01,18,19,28,9.70
2017,01,18,19,29,9.70
2017,01,18,19,30,9.70
2017,01,18,19,31,9.70
2017,01,18,19,32,9.70
2017,01,18,19,33,9.70
2017,01,18,19,34,9.70
2017,01,18,19,35,9.70
2017,01,18,19,36,9.70
2017,01,18,19,37,9.70
2017,01,18,19,38,9.70
2017,01,18,19,39,9.70
2017,01,18,19,40,9.70
2017,01,18,19,41,9.70
2017,01,18,19,42,9.70
2017,01,18,19,43,9.70
2017,01,18,19,44,9.70
2017,01,18,19,45,9.70
2017,01,18,19,46,9.70
2017,01,18,19,47,9.70
2017,01,18,19,48,9.70
2017,01,18,19,49,9.70
2017,01,18,19,50,9.70
2017,01,18,19,51,9.70
2017,01,18,19,52,9.70
2017,01,18,19,53,9.70
2017,01,18,19,54,9.70
2017,01,18,19,55,9.70
2017,01,18,19,56,9.70
2017,01,18,19,57,9.70
2017,01,18,19,58,9.70
2017,01,18,19,59,9.70
2017,01,18,20,00,9.70
2017,01,18,20,01,9.70
2017,01,18,20,02,9.70
2017,01,18,20,03,9.70
2017,01,18,20,04,9.70
2017,01,18,20,05,9.70
2017,01,18,20,06,9.70
2017,01,18,20,07,9.70
2017,01,18,20,08,9.70
2017,01,18,20,09,9.70
2017,01,18,20,10,9.70
2017,01,18,20,11,9.70
2017,01,18,20,12,9.70
2017,01,18,20,13,9.70
2017,01,18,20,14,9.70
2017,01,18,20,15,9.70
2017,01,18,20,16,9.70
2017,01,18,20,17,9.70
2017,01,18,20,18,9.70
2017,01,18,20,19,9.70
2017,01,18,20,20,9.70
2017,01,18,20,21,9.70
2017,01,18,20,22,9.70
2017,01,18,20,23,9.70
2017,01,18,20,24,9.70
2017,01,18,20,25,9.70
2017,01,18,20,26,9.70
2017,01,18,20,27,9.70
2017,01,18,20,28,9.70
2017,01,18,20,29,9.70
2017,01,18,20,30,9.70
2017,01,18,20,31,9.70
2017,01,18,20,32,9.70
2017,01,18,20,33,9.70
2017,01,18,20,34,9.70
2017,01,18,20,35,9.70
2017,01,18,20,36,9.70
2017,01,18,20,37,9.70
2017,01,18,20,38,9.70
2017,01,18,20,39,9.70
2017,01,18,20,40,9.70
2017,01,18,20,41,9.70
2017,01,18,20,42,9.70
2017,01,18,20,43,9.70
2017,01,18,20,44,9.60
2017,01,18,20,45,9.60
2017,01,18,20,46,9.60
2017,01,18,20,47,9.60
2017,01,18,20,48,9.60
2017,01,18,20,49,9.60
2017,01,18,20,50,9.60
2017,01,18,20,51,9.60
2017,01,18,20,52,9.60
2017,01,18,20,53,9.60
2017,01,18,20,54,9.70
2017,01,18,20,55,9.70
2017,01,18,20,56,9.70
2017,01,18,20,57,9.70
2017,01,18,20,58,9.70
2017,01,18,20,59,9.70
2017,01,18,21,00,9.70
2017,01,18,21,01,9.70
2017,01,18,21,02,9.70
2017,01,18,21,03,9.70
2017,01,18,21,04,9.70
2017,01,18,21,05,9.70
2017,01,18,21,06,9.70
2017,01,18,21,07,9.70
2017,01,18,21,08,9.70
2017,01,18,21,09,9.70
2017,01,18,21,10,9.70
2017,01,18,21,11,9.70
2017,01,18,21,12,9.70
2017,01,18,21,13,9.70
2017,01,18,21,14,9.70
2017,01,18,21,15,9.70
2017,01,18,21,16,9.70
2017,01,18,21,17,9.70
2017,01,18,21,18,9.70
2017,01,18,21,19,9.70
2017,01,18,21,20,9.70
2017,01,18,21,21,9.70
2017,01,18,21,22,9.70
2017,01,18,21,23,9.70
2017,01,18,21,24,9.70
2017,01,18,21,25,9.70
2017,01,18,21,26,9.70
2017,01,18,21,27,9.70
2017,01,18,21,28,9.70
2017,01,18,21,29,9.70
2017,01,18,21,30,9.70
2017,01,18,21,31,9.70
2017,01,18,21,32,9.70
2017,01,18,21,33,9.70
2017,01,18,21,34,9.70
2017,01,18,21,35,9.70
2017,01,18,21,36,9.70
2017,01,18,21,37,9.70
2017,01,18,21,38,9.70
2017,01,18,21,39,9.70
2017,01,18,21,40,9.70
2017,01,18,21,41,9.70
2017,01,18,21,42,9.70
2017,01,18,21,43,9.70
2017,01,18,21,44,9.60
2017,01,18,21,45,9.40
2017,01,18,21,46,9.30
2017,01,18,21,47,9.30
2017,01,18,21,48,9.30
2017,01,18,21,49,9.30
2017,01,18,21,50,9.30
2017,01,18,21,51,9.30
2017,01,18,21,52,9.30
2017,01,18,21,53,9.30
2017,01,18,21,54,9.30
2017,01,18,21,55,9.30
2017,01,18,21,56,9.30
2017,01,18,21,57,9.30
2017,01,18,21,58,9.40
2017,01,18,21,59,9.40
2017,01,18,22,00,9.30
2017,01,18,22,01,9.30
2017,01,18,22,02,9.30
2017,01,18,22,03,9.30
2017,01,18,22,04,9.30
2017,01,18,22,05,9.30
2017,01,18,22,06,9.30
2017,01,18,22,07,9.20
2017,01,18,22,08,9.20
2017,01,18,22,09,9.20
2017,01,18,22,10,9.10
2017,01,18,22,11,9.10
2017,01,18,22,12,9.10
2017,01,18,22,13,9.10
2017,01,18,22,14,9.10
2017,01,18,22,15,9.10
2017,01,18,22,16,9.10
2017,01,18,22,17,9.10
2017,01,18,22,18,9.00
2017,01,18,22,19,9.00
2017,01,18,22,20,9.00
2017,01,18,22,21,9.00
2017,01,18,22,22,9.00
2017,01,18,22,23,9.00
2017,01,18,22,24,9.00
2017,01,18,22,25,9.00
2017,01,18,22,26,9.00
2017,01,18,22,27,9.00
2017,01,18,22,28,8.90
2017,01,18,22,29,8.90
2017,01,18,22,30,8.90
2017,01,18,22,31,8.90
2017,01,18,22,32,8.90
2017,01,18,22,33,8.90
2017,01,18,22,34,8.90
2017,01,18,22,35,8.90
2017,01,18,22,36,8.90
2017,01,18,22,37,8.90
2017,01,18,22,38,8.90
2017,01,18,22,39,8.90
2017,01,18,22,40,8.90
2017,01,18,22,41,8.90
2017,01,18,22,42,8.90
2017,01,18,22,43,8.90
2017,01,18,22,44,8.90
2017,01,18,22,45,8.90
2017,01,18,22,46,8.90
2017,01,18,22,47,8.90
2017,01,18,22,48,8.90
2017,01,18,22,49,8.90
2017,01,18,22,50,8.90
2017,01,18,22,51,8.90
2017,01,18,22,52,8.90
2017,01,18,22,53,8.90
2017,01,18,22,54,8.90
2017,01,18,22,55,8.90
2017,01,18,22,56,8.90
2017,01,18,22,57,8.90
2017,01,18,22,58,8.90
2017,01,18,22,59,8.90
2017,01,18,23,00,8.90
2017,01,18,23,01,8.90
2017,01,18,23,02,8.90
2017,01,18,23,03,8.90
2017,01,18,23,04,8.90
2017,01,18,23,05,8.90
2017,01,18,23,06,8.80
2017,01,18,23,07,8.80
2017,01,18,23,08,8.80
2017,01,18,23,09,8.80
2017,01,18,23,10,8.80
2017,01,18,23,11,8.80
2017,01,18,23,12,8.80
2017,01,18,23,13,8.80
2017,01,18,23,14,8.80
2017,01,18,23,15,8.80
2017,01,18,23,16,8.80
2017,01,18,23,17,8.80
2017,01,18,23,18,8.80
2017,01,18,23,19,8.80
2017,01,18,23,20,8.80
2017,01,18,23,21,8.80
2017,01,18,23,22,8.80
2017,01,18,23,23,8.80
2017,01,18,23,24,8.80
2017,01,18,23,25,8.80
2017,01,18,23,26,8.80
2017,01,18,23,27,8.80
2017,01,18,23,28,8.80
2017,01,18,23,29,8.80
2017,01,18,23,30,8.80
2017,01,18,23,31,8.80
2017,01,18,23,32,8.80
2017,01,18,23,33,8.80
2017,01,18,23,34,8.70
2017,01,18,23,35,8.70
2017,01,18,23,36,8.70
2017,01,18,23,37,8.70
2017,01,18,23,38,8.70
2017,01,18,23,39,8.70
2017,01,18,23,40,8.70
2017,01,18,23,41,8.70
2017,01,18,23,42,8.70
2017,01,18,23,43,8.70
2017,01,18,23,44,8.70
2017,01,18,23,45,8.70
2017,01,18,23,46,8.70
2017,01,18,23,47,8.70
2017,01,18,23,48,8.70
2017,01,18,23,49,8.70
2017,01,18,23,50,8.70
2017,01,18,23,51,8.70